EW9686 Weather Reports


Display with metric or nautical units.
time (UTC)temp
F
wind
direction
speed
MPH
gust
MPH
rain 1hr
in
rain 24hr
in
rain mn
in
humidity
%
barometer
mb
20260504205519 73 225 6.0 12.0 0.00 0.00 0.00 33 1005.5
20260504204519 73 225 6.0 11.0 0.00 0.00 0.00 33 1005.6
20260504203519 73 225 5.0 11.0 0.00 0.00 0.00 33 1005.5
20260504202519 72 225 7.0 13.0 0.00 0.00 0.00 32 1005.5
20260504201519 72 225 6.0 14.0 0.00 0.00 0.00 33 1005.5
20260504200519 72 225 5.0 12.0 0.00 0.00 0.00 33 1005.7
20260504195519 72 225 8.0 18.0 0.00 0.00 0.00 33 1005.8
20260504194539 72 225 8.0 14.0 0.00 0.00 0.00 34 1006.0
20260504193519 71 225 7.0 16.0 0.00 0.00 0.00 33 1006.1
20260504192519 72 225 3.0 8.0 0.00 0.00 0.00 34 1006.2
20260504191519 71 225 6.0 11.0 0.00 0.00 0.00 34 1006.2
20260504190519 71 225 7.0 14.0 0.00 0.00 0.00 33 1006.5
20260504185519 71 248 7.0 15.0 0.00 0.00 0.00 33 1006.7
20260504184519 70 225 9.0 20.0 0.00 0.00 0.00 35 1006.9
20260504183519 70 225 8.0 18.0 0.00 0.00 0.00 34 1006.9
20260504182519 70 225 9.0 14.0 0.00 0.00 0.00 34 1007.1
20260504181519 70 225 6.0 13.0 0.00 0.00 0.00 35 1007.1
20260504180519 70 225 8.0 19.0 0.00 0.00 0.00 36 1007.3
20260504175519 69 225 6.0 16.0 0.00 0.00 0.00 36 1007.4
20260504174539 69 225 8.0 19.0 0.00 0.00 0.00 35 1007.5
20260504173600 69 225 7.0 15.0 0.00 0.00 0.00 35 1007.5
20260504172559 69 270 5.0 11.0 0.00 0.00 0.00 37 1007.8
20260504171600 68 225 8.0 15.0 0.00 0.00 0.00 36 1007.9
20260504170520 68 248 7.0 13.0 0.00 0.00 0.00 37 1007.9
20260504150519 64 225 4.0 10.0 0.00 0.00 0.00 46 1009.2
20260504140519 62 225 5.0 11.0 0.00 0.00 0.00 54 1009.5
20260504130539 58 225 7.0 14.0 0.00 0.00 0.00 58 1010.2
20260504110519 48 225 3.0 9.0 0.00 0.00 0.00 74 1010.8
20260504100519 45 225 2.0 9.0 0.00 0.00 0.00 73 1010.6
20260504081519 48 225 3.0 7.0 0.00 0.00 0.00 63 1010.3
20260504080540 48 225 3.0 8.0 0.00 0.00 0.00 64 1010.3
20260504050519 47 225 1.0 5.0 0.00 0.00 0.00 60 1009.8
20260504045519 47 225 1.0 4.0 0.00 0.00 0.00 60 1009.8
20260504044519 47 0.0 3.0 0.00 0.00 0.00 60 1009.7
20260504043539 47 0.0 2.0 0.00 0.00 0.00 60 1009.6
20260504042519 47 0.0 1.0 0.00 0.00 0.00 60 1009.5
20260504041519 47 0.0 1.0 0.00 0.00 0.00 58 1009.4
20260504040519 48 0.0 4.0 0.00 0.00 0.00 57 1009.3
20260504035519 48 0.0 2.0 0.00 0.00 0.00 57 1009.3
20260504034540 48 0.0 2.0 0.00 0.00 0.00 56 1009.2
20260504033539 48 0.0 2.0 0.00 0.00 0.00 56 1009.2
20260504032519 48 225 1.0 4.0 0.00 0.00 0.00 56 1009.1
20260504031519 48 0.0 3.0 0.00 0.00 0.00 56 1009.1
20260504030521 48 0.0 2.0 0.00 0.00 0.00 55 1009.1
20260504025520 49 0.0 2.0 0.00 0.00 0.00 53 1009.0
20260504024519 49 0.0 2.0 0.00 0.00 0.00 53 1009.0
20260504023520 49 0.0 1.0 0.00 0.00 0.00 52 1009.1
20260504022519 51 0.0 1.0 0.00 0.00 0.00 49 1009.0
20260504021539 51 225 1.0 5.0 0.00 0.00 0.00 49 1009.0
20260504020520 50 0.0 2.0 0.00 0.00 0.00 50 1009.0
20260504015519 50 0.0 2.0 0.00 0.00 0.00 51 1009.0
20260504014519 50 0.0 4.0 0.00 0.00 0.00 51 1008.8
20260504013519 49 0.0 1.0 0.00 0.00 0.00 52 1008.8
20260504012600 49 0.0 1.0 0.00 0.00 0.00 51 1008.8
20260504011519 49 0.0 0.0 0.00 0.00 0.00 50 1008.6
20260504010540 50 0.0 0.0 0.00 0.00 0.00 49 1008.5
20260504005519 51 0.0 0.0 0.00 0.00 0.00 47 1008.3
20260504004519 52 0.0 1.0 0.00 0.00 0.00 45 1008.2
20260504003519 52 0.0 1.0 0.00 0.00 0.00 44 1008.1
20260504002519 53 0.0 1.0 0.00 0.00 0.00 43 1007.9
20260504001519 54 0.0 1.0 0.00 0.00 0.00 42 1007.8
20260504000522 55 0.0 1.0 0.00 0.00 0.00 39 1007.7
20260503235519 56 0.0 1.0 0.00 0.00 0.00 37 1007.6
20260503234520 57 0.0 2.0 0.00 0.00 0.00 35 1007.5
20260503233519 58 270 1.0 7.0 0.00 0.00 0.00 33 1007.4
20260503232519 59 270 2.0 4.0 0.00 0.00 0.00 32 1007.3
20260503231519 59 270 3.0 8.0 0.00 0.00 0.00 31 1007.4
20260503230520 59 248 5.0 12.0 0.00 0.00 0.00 30 1007.3
20260503225519 59 270 6.0 12.0 0.00 0.00 0.00 30 1007.2
20260503224539 60 270 5.0 14.0 0.00 0.00 0.00 31 1007.1
20260503223519 60 270 6.0 10.0 0.00 0.00 0.00 30 1007.0
20260503222519 60 293 4.0 9.0 0.00 0.00 0.00 31 1007.1
20260503221519 59 270 6.0 13.0 0.00 0.00 0.00 30 1007.1
20260503220540 59 270 4.0 11.0 0.00 0.00 0.00 31 1007.0
20260503215519 59 225 7.0 14.0 0.00 0.00 0.00 30 1007.2
20260503214523 59 270 6.0 12.0 0.00 0.00 0.00 31 1007.2
20260503213519 59 270 6.0 19.0 0.00 0.00 0.00 32 1007.1
20260503212521 60 293 5.0 10.0 0.00 0.00 0.00 32 1007.1
20260503211519 59 293 7.0 16.0 0.00 0.00 0.00 31 1007.1
20260503210600 59 293 9.0 25.0 0.00 0.00 0.00 31 1007.1